Location: Centerville
(32.8776°N, 96.6203°W)
Time: 04:26:39
(UTC+00:00)

Lacrosse 4 Rocket - Pass Details

Date: 17 June 2021
Orbit: 543 x 614 km, 68.0° (Epoch: 29 July)

Event Time Altitude Azimuth Distance (km) Brightness Sun altitude
Rises 10:41:02 0° 314° (NW) 2,715 4.7 -7.5°
Reaches altitude 10° 10:43:56 10° 293° (WNW) 1,811 3.6 -7.0°
Maximum altitude 10:46:24 16° 255° (WSW) 1,468 2.9 -6.5°
Drops below altitude 10° 10:48:51 10° 217° (SW) 1,798 3.4 -6.1°
Sets 10:51:44 0° 195° (SSW) 2,687 4.4 -5.6°
